SHT22E EGLL-EGJB

Flight info

Callsign SHT22E
Flight time 0h 52m
Altitude 23000
Route GASGU2J GASGU N866 SAM/N0389F220 N63 LELNA LELNA1V
Aircraft A319/M-SDE3FGIJ1KRWXY/LB1

Departure

Time 2026-04-20 15:41
Airport London Heathrow Airport (EGLL)

Arrival

Time 2026-04-20 16:33
Airport Guernsey Airport (EGJB)
Time Latitude Longitude Altitude Speed Heading
2026-04-20 15:23 51.46931 -0.48790 87 ft 0 kts 360°
2026-04-20 15:31 51.46919 -0.48789 90 ft 4 kts 360°
2026-04-20 15:31 51.46893 -0.48789 87 ft 4 kts 15°
2026-04-20 15:31 51.46877 -0.48814 90 ft 4 kts 81°
2026-04-20 15:31 51.46875 -0.48847 87 ft 4 kts 90°
2026-04-20 15:32 51.46875 -0.48869 87 ft 0 kts 90°
2026-04-20 15:33 51.46875 -0.48829 88 ft 9 kts 90°
2026-04-20 15:34 51.46818 -0.48752 87 ft 15 kts 182°
2026-04-20 15:34 51.46695 -0.48750 87 ft 17 kts 179°
2026-04-20 15:34 51.46682 -0.48750 87 ft 0 kts 179°
2026-04-20 15:35 51.46650 -0.48751 87 ft 11 kts 182°
2026-04-20 15:36 51.46598 -0.48774 88 ft 1 kts 200°
2026-04-20 15:36 51.46597 -0.48774 88 ft 0 kts 200°
2026-04-20 15:37 51.46596 -0.48774 88 ft 1 kts 200°
2026-04-20 15:37 51.46577 -0.48784 87 ft 5 kts 196°
2026-04-20 15:38 51.46534 -0.48791 87 ft 7 kts 175°
2026-04-20 15:38 51.46487 -0.48739 91 ft 10 kts 124°
2026-04-20 15:38 51.46477 -0.48674 88 ft 0 kts 88°
2026-04-20 15:40 51.46478 -0.48590 88 ft 27 kts 90°
2026-04-20 15:40 51.46480 -0.47929 87 ft 90 kts 90°
2026-04-20 15:41 51.46485 -0.46606 91 ft 146 kts 89°
2026-04-20 15:41 51.46488 -0.44895 599 ft 152 kts 88°
2026-04-20 15:41 51.46510 -0.43186 1282 ft 156 kts 85°
2026-04-20 15:41 51.46429 -0.41375 1797 ft 180 kts 107°
2026-04-20 15:42 51.45659 -0.39557 2230 ft 212 kts 123°
2026-04-20 15:42 51.44746 -0.37536 2870 ft 236 kts 122°
2026-04-20 15:42 51.43754 -0.35282 3696 ft 254 kts 126°
2026-04-20 15:42 51.42342 -0.33492 4816 ft 266 kts 151°
2026-04-20 15:43 51.40933 -0.32798 5672 ft 273 kts 171°
2026-04-20 15:43 51.39049 -0.33083 6704 ft 282 kts 197°
2026-04-20 15:43 51.37357 -0.34701 7716 ft 287 kts 222°
2026-04-20 15:43 51.35887 -0.36855 8845 ft 286 kts 223°
2026-04-20 15:44 51.34410 -0.39005 9910 ft 290 kts 223°
2026-04-20 15:44 51.32895 -0.41170 10702 ft 302 kts 221°
2026-04-20 15:44 51.31357 -0.43625 11064 ft 324 kts 235°
2026-04-20 15:44 51.30227 -0.46804 11708 ft 332 kts 249°
2026-04-20 15:45 51.29465 -0.50289 12586 ft 334 kts 255°
2026-04-20 15:45 51.28794 -0.53853 13481 ft 336 kts 256°
2026-04-20 15:45 51.28151 -0.57462 14329 ft 339 kts 256°
2026-04-20 15:45 51.27492 -0.61094 15099 ft 342 kts 256°
2026-04-20 15:46 51.26806 -0.64739 15894 ft 344 kts 256°
2026-04-20 15:46 51.26109 -0.68357 16681 ft 346 kts 256°
2026-04-20 15:46 51.25391 -0.72043 17453 ft 349 kts 256°
2026-04-20 15:46 51.24662 -0.75747 18235 ft 351 kts 257°
2026-04-20 15:47 51.23926 -0.79482 18954 ft 354 kts 257°
2026-04-20 15:47 51.23184 -0.83239 19685 ft 355 kts 257°
2026-04-20 15:47 51.22444 -0.86992 20418 ft 355 kts 258°
2026-04-20 15:47 51.21702 -0.90748 21175 ft 356 kts 258°
2026-04-20 15:48 51.20775 -0.94435 21904 ft 363 kts 249°
2026-04-20 15:48 51.19397 -0.97799 22608 ft 372 kts 238°
2026-04-20 15:48 51.17588 -1.00818 23118 ft 379 kts 232°
2026-04-20 15:48 51.15694 -1.03727 23224 ft 375 kts 232°
2026-04-20 15:49 51.13819 -1.06577 23246 ft 371 kts 232°
2026-04-20 15:49 51.11957 -1.09409 23246 ft 370 kts 232°
2026-04-20 15:49 51.10095 -1.12252 23244 ft 369 kts 232°
2026-04-20 15:49 51.08253 -1.15072 23246 ft 369 kts 232°
2026-04-20 15:50 51.06407 -1.17903 23247 ft 369 kts 232°
2026-04-20 15:50 51.04560 -1.20735 23245 ft 369 kts 232°
2026-04-20 15:50 51.02706 -1.23563 23239 ft 369 kts 231°
2026-04-20 15:50 51.00854 -1.26381 23244 ft 369 kts 231°
2026-04-20 15:51 50.98999 -1.29204 23243 ft 370 kts 231°
2026-04-20 15:51 50.97146 -1.32031 23240 ft 370 kts 231°
2026-04-20 15:51 50.95142 -1.34647 23247 ft 378 kts 221°
2026-04-20 15:51 50.92823 -1.36698 23250 ft 385 kts 214°
2026-04-20 15:52 50.90427 -1.38600 23242 ft 385 kts 214°
2026-04-20 15:52 50.88034 -1.40501 23238 ft 385 kts 214°
2026-04-20 15:52 50.85642 -1.42406 23251 ft 385 kts 214°
2026-04-20 15:53 50.80854 -1.46208 23250 ft 385 kts 214°
2026-04-20 15:53 50.78463 -1.48101 23250 ft 385 kts 214°
2026-04-20 15:53 50.76070 -1.50000 23247 ft 385 kts 214°
2026-04-20 15:53 50.73683 -1.51899 23248 ft 385 kts 214°
2026-04-20 15:54 50.71293 -1.53798 23244 ft 385 kts 214°
2026-04-20 15:54 50.68899 -1.55694 23247 ft 385 kts 214°
2026-04-20 15:54 50.66510 -1.57584 23246 ft 385 kts 214°
2026-04-20 15:54 50.64117 -1.59471 23243 ft 385 kts 214°
2026-04-20 15:55 50.61724 -1.61354 23244 ft 384 kts 214°
2026-04-20 15:55 50.59331 -1.63237 23242 ft 384 kts 213°
2026-04-20 15:55 50.56940 -1.65119 23242 ft 384 kts 214°
2026-04-20 15:55 50.54581 -1.66976 23242 ft 384 kts 214°
2026-04-20 15:56 50.52193 -1.68855 23240 ft 384 kts 213°
2026-04-20 15:56 50.49802 -1.70732 23242 ft 384 kts 213°
2026-04-20 15:56 50.47411 -1.72606 23243 ft 384 kts 213°
2026-04-20 15:56 50.45019 -1.74475 23248 ft 384 kts 213°
2026-04-20 15:57 50.42627 -1.76342 23248 ft 384 kts 213°
2026-04-20 15:57 50.40234 -1.78211 23249 ft 384 kts 213°
2026-04-20 15:57 50.37843 -1.80075 23246 ft 384 kts 213°
2026-04-20 15:57 50.35454 -1.81934 23242 ft 384 kts 213°
2026-04-20 15:58 50.33063 -1.83794 23243 ft 384 kts 213°
2026-04-20 15:58 50.30675 -1.85648 23239 ft 384 kts 213°
2026-04-20 15:58 50.28283 -1.87501 23240 ft 384 kts 213°
2026-04-20 15:58 50.25889 -1.89355 23240 ft 384 kts 213°
2026-04-20 15:59 50.23498 -1.91208 23239 ft 383 kts 213°
2026-04-20 15:59 50.21110 -1.93061 23240 ft 383 kts 213°
2026-04-20 15:59 50.18723 -1.94908 23237 ft 383 kts 213°
2026-04-20 15:59 50.16333 -1.96751 23241 ft 383 kts 213°
2026-04-20 16:00 50.13944 -1.98593 23237 ft 383 kts 213°
2026-04-20 16:00 50.11562 -2.00425 22874 ft 380 kts 213°
2026-04-20 16:00 50.09200 -2.02239 22419 ft 376 kts 213°
2026-04-20 16:00 50.06864 -2.04025 21968 ft 372 kts 212°
2026-04-20 16:01 50.04558 -2.05789 21510 ft 367 kts 212°
2026-04-20 16:01 50.02280 -2.07536 21055 ft 363 kts 212°
2026-04-20 16:01 50.00037 -2.09288 20581 ft 357 kts 214°
2026-04-20 16:01 49.98014 -2.11431 20127 ft 348 kts 225°
2026-04-20 16:02 49.96842 -2.13138 19812 ft 350 kts 231°
2026-04-20 16:02 49.95230 -2.15972 19349 ft 352 kts 233°
2026-04-20 16:02 49.93607 -2.18821 18865 ft 352 kts 232°
2026-04-20 16:02 49.91979 -2.21659 18379 ft 351 kts 232°
2026-04-20 16:03 49.90353 -2.24482 17878 ft 350 kts 232°
2026-04-20 16:03 49.88734 -2.27291 17398 ft 348 kts 232°
2026-04-20 16:03 49.87125 -2.30083 16939 ft 346 kts 232°
2026-04-20 16:03 49.85528 -2.32860 16476 ft 344 kts 232°
2026-04-20 16:04 49.83942 -2.35620 16017 ft 342 kts 231°
2026-04-20 16:04 49.82363 -2.38363 15560 ft 340 kts 231°
2026-04-20 16:04 49.80794 -2.41079 15105 ft 338 kts 231°
2026-04-20 16:04 49.79231 -2.43779 14659 ft 336 kts 231°
2026-04-20 16:05 49.77678 -2.46465 14204 ft 334 kts 231°
2026-04-20 16:05 49.76133 -2.49136 13721 ft 332 kts 231°
2026-04-20 16:05 49.74597 -2.51787 13270 ft 330 kts 231°
2026-04-20 16:05 49.73069 -2.54426 12830 ft 328 kts 230°
2026-04-20 16:06 49.71366 -2.56774 12385 ft 329 kts 216°
2026-04-20 16:06 49.69343 -2.58420 11942 ft 330 kts 202°
2026-04-20 16:06 49.67120 -2.59261 11459 ft 329 kts 188°
2026-04-20 16:06 49.64837 -2.59413 11007 ft 327 kts 182°
2026-04-20 16:07 49.62568 -2.59503 10564 ft 324 kts 182°
2026-04-20 16:07 49.60362 -2.59599 10431 ft 311 kts 182°
2026-04-20 16:07 49.58243 -2.59698 10301 ft 299 kts 182°
2026-04-20 16:07 49.56185 -2.59796 10048 ft 293 kts 182°
2026-04-20 16:08 49.54162 -2.59894 9764 ft 291 kts 182°
2026-04-20 16:08 49.52137 -2.59990 9312 ft 291 kts 182°
2026-04-20 16:08 49.50116 -2.60083 8943 ft 289 kts 182°
2026-04-20 16:08 49.48102 -2.60175 8534 ft 289 kts 182°
2026-04-20 16:09 49.46158 -2.60773 8039 ft 287 kts 205°
2026-04-20 16:09 49.44576 -2.62576 7566 ft 284 kts 230°
2026-04-20 16:09 49.43645 -2.65216 7076 ft 282 kts 255°
2026-04-20 16:09 49.43403 -2.68214 6566 ft 282 kts 267°
2026-04-20 16:10 49.43296 -2.71212 5992 ft 280 kts 267°
2026-04-20 16:10 49.43186 -2.74149 5519 ft 278 kts 267°
2026-04-20 16:10 49.43071 -2.77159 5061 ft 279 kts 267°
2026-04-20 16:10 49.43100 -2.80090 4615 ft 280 kts 279°
2026-04-20 16:11 49.43682 -2.82947 4162 ft 280 kts 298°
2026-04-20 16:11 49.44779 -2.85385 3750 ft 277 kts 316°
2026-04-20 16:11 49.46107 -2.87515 3481 ft 272 kts 317°
2026-04-20 16:11 49.47383 -2.89585 3375 ft 261 kts 317°
2026-04-20 16:12 49.48372 -2.91856 3309 ft 254 kts 291°
2026-04-20 16:12 49.48499 -2.94465 3243 ft 240 kts 257°
2026-04-20 16:12 49.47762 -2.96614 3196 ft 221 kts 222°
2026-04-20 16:12 49.46535 -2.97788 3179 ft 201 kts 192°
2026-04-20 16:13 49.45198 -2.97952 3121 ft 188 kts 165°
2026-04-20 16:13 49.44019 -2.97257 3079 ft 178 kts 141°
2026-04-20 16:13 49.43165 -2.95947 3038 ft 172 kts 119°
2026-04-20 16:13 49.42729 -2.94276 2994 ft 168 kts 98°
2026-04-20 16:14 49.42699 -2.92497 2957 ft 167 kts 86°
2026-04-20 16:14 49.42731 -2.90720 2918 ft 166 kts 87°
2026-04-20 16:14 49.42760 -2.88946 2878 ft 166 kts 87°
2026-04-20 16:14 49.42788 -2.87175 2840 ft 166 kts 87°
2026-04-20 16:15 49.42817 -2.85404 2799 ft 165 kts 87°
2026-04-20 16:15 49.42845 -2.83640 2758 ft 165 kts 87°
2026-04-20 16:15 49.42882 -2.81878 2717 ft 166 kts 86°
2026-04-20 16:15 49.42928 -2.80108 2649 ft 166 kts 86°
2026-04-20 16:16 49.42977 -2.78342 2491 ft 165 kts 86°
2026-04-20 16:16 49.43028 -2.76577 2287 ft 166 kts 86°
2026-04-20 16:16 49.43078 -2.74844 2068 ft 157 kts 85°
2026-04-20 16:16 49.43125 -2.73225 1863 ft 148 kts 85°
2026-04-20 16:17 49.43170 -2.71670 1664 ft 144 kts 86°
2026-04-20 16:17 49.43213 -2.70165 1460 ft 136 kts 86°
2026-04-20 16:17 49.43252 -2.68800 1289 ft 122 kts 85°
2026-04-20 16:17 49.43288 -2.67543 1123 ft 118 kts 84°
2026-04-20 16:18 49.43323 -2.66292 974 ft 117 kts 85°
2026-04-20 16:18 49.43359 -2.65046 789 ft 118 kts 83°
2026-04-20 16:18 49.43399 -2.63797 630 ft 118 kts 84°
2026-04-20 16:18 49.43434 -2.62545 473 ft 116 kts 84°
2026-04-20 16:19 49.43464 -2.61318 333 ft 114 kts 83°
2026-04-20 16:19 49.43502 -2.60240 346 ft 100 kts 87°
2026-04-20 16:19 49.43543 -2.59034 795 ft 115 kts 83°
2026-04-20 16:19 49.43575 -2.57789 1531 ft 120 kts 85°
2026-04-20 16:20 49.43602 -2.56420 1870 ft 140 kts 86°
2026-04-20 16:20 49.43638 -2.54800 2352 ft 163 kts 87°
2026-04-20 16:20 49.43679 -2.52943 2868 ft 182 kts 87°
2026-04-20 16:20 49.43496 -2.51007 2972 ft 191 kts 116°
2026-04-20 16:21 49.42386 -2.49678 3006 ft 221 kts 159°
2026-04-20 16:21 49.40824 -2.49845 3015 ft 237 kts 202°
2026-04-20 16:21 49.39637 -2.51597 3014 ft 244 kts 244°
2026-04-20 16:21 49.39432 -2.54123 3013 ft 242 kts 286°
2026-04-20 16:22 49.40252 -2.56297 3014 ft 236 kts 320°
2026-04-20 16:22 49.41524 -2.57847 3012 ft 233 kts 328°
2026-04-20 16:22 49.42707 -2.59583 3004 ft 239 kts 309°
2026-04-20 16:22 49.43424 -2.61902 3010 ft 243 kts 286°
2026-04-20 16:23 49.43560 -2.64484 3010 ft 245 kts 266°
2026-04-20 16:23 49.43449 -2.67093 3009 ft 245 kts 267°
2026-04-20 16:23 49.43345 -2.69700 3009 ft 244 kts 267°
2026-04-20 16:23 49.43244 -2.72309 3012 ft 244 kts 267°
2026-04-20 16:24 49.43144 -2.74916 3014 ft 245 kts 267°
2026-04-20 16:24 49.43045 -2.77527 3011 ft 245 kts 267°
2026-04-20 16:24 49.43009 -2.80139 3005 ft 244 kts 277°
2026-04-20 16:24 49.43449 -2.82622 3011 ft 236 kts 298°
2026-04-20 16:25 49.44303 -2.84614 3010 ft 213 kts 316°
2026-04-20 16:25 49.45290 -2.86204 3042 ft 201 kts 318°
2026-04-20 16:25 49.46243 -2.87748 3016 ft 197 kts 318°
2026-04-20 16:25 49.47183 -2.89272 3019 ft 196 kts 318°
2026-04-20 16:26 49.48087 -2.90837 3006 ft 198 kts 309°
2026-04-20 16:26 49.48588 -2.92826 3019 ft 204 kts 280°
2026-04-20 16:26 49.48437 -2.94992 3020 ft 206 kts 250°
2026-04-20 16:26 49.47654 -2.96795 3018 ft 202 kts 219°
2026-04-20 16:27 49.46458 -2.97816 3017 ft 195 kts 191°
2026-04-20 16:27 49.45142 -2.97920 3022 ft 187 kts 165°
2026-04-20 16:27 49.43970 -2.97193 3025 ft 179 kts 140°
2026-04-20 16:27 49.43121 -2.95884 3021 ft 174 kts 121°
2026-04-20 16:28 49.42635 -2.94221 3019 ft 170 kts 101°
2026-04-20 16:28 49.42549 -2.92429 3010 ft 168 kts 86°
2026-04-20 16:28 49.42606 -2.90634 3009 ft 168 kts 86°
2026-04-20 16:28 49.42661 -2.88836 3017 ft 169 kts 86°
2026-04-20 16:29 49.42716 -2.87037 3015 ft 169 kts 86°
2026-04-20 16:29 49.42770 -2.85241 3012 ft 169 kts 86°
2026-04-20 16:29 49.42824 -2.83439 3004 ft 169 kts 86°
2026-04-20 16:29 49.42878 -2.81633 2880 ft 169 kts 86°
2026-04-20 16:30 49.42932 -2.79829 2681 ft 168 kts 86°
2026-04-20 16:30 49.42984 -2.78037 2459 ft 168 kts 86°
2026-04-20 16:30 49.43037 -2.76249 2231 ft 167 kts 86°
2026-04-20 16:30 49.43089 -2.74477 2007 ft 164 kts 86°
2026-04-20 16:31 49.43137 -2.72787 1783 ft 153 kts 86°
2026-04-20 16:31 49.43183 -2.71193 1578 ft 147 kts 85°
2026-04-20 16:31 49.43228 -2.69643 1384 ft 137 kts 85°
2026-04-20 16:31 49.43266 -2.68277 1197 ft 122 kts 84°
2026-04-20 16:32 49.43302 -2.67007 1048 ft 117 kts 85°
2026-04-20 16:32 49.43339 -2.65761 887 ft 117 kts 84°
2026-04-20 16:32 49.43379 -2.64531 713 ft 115 kts 84°
2026-04-20 16:32 49.43409 -2.63313 566 ft 114 kts 84°
2026-04-20 16:33 49.43447 -2.62101 413 ft 114 kts 85°
2026-04-20 16:33 49.43474 -2.60899 327 ft 107 kts 84°
2026-04-20 16:33 49.43502 -2.60031 348 ft 42 kts 87°
2026-04-20 16:33 49.43432 -2.59863 344 ft 20 kts 173°
2026-04-20 16:34 49.43369 -2.59857 345 ft 0 kts 175°
2026-04-20 16:34 49.43361 -2.59853 350 ft 4 kts 162°
2026-04-20 16:35 49.43349 -2.59782 345 ft 11 kts 81°
2026-04-20 16:35 49.43326 -2.59695 345 ft 11 kts 162°
2026-04-20 16:35 49.43269 -2.59688 345 ft 3 kts 178°
2026-04-20 16:35 49.43260 -2.59688 345 ft 0 kts 178°